Weather in Segyan-Kyuel'

Russia / Sakha (Yakutia) Republic     64°00′09″N   130°18′37″E
temp.,
°C
wind,
m/s
gust,
m/s
humid.,
%
clouds,
%
prec.,
mm/h
press.,
hPa
HPBL,
m
22 may, sun
sun2200:00+2nne338337 0.1 101018
03:00+2nne338276 0.1 101024
06:00+4nne348096 0.1 1011181
09:00+4ene239299 0.3 1011289
12:00+5nne3392100 0.3 1010240
15:00+5ne3493100 1.1 1009312
18:00+4nne3496100 3.9 1009166
21:00+2nne4598100 19.0 1010133
23 may, mon
mon2300:00+1nne3499100 15.5 1010100
03:00+1ene33100100 20.8 1010141
06:00+1nne23100100 5.3 1010259
09:00+2nne34100100 11.1 1011171
12:00+3nne34100100 3.1 1010147
15:00+3nne339998 3.8 1010149
18:00+4nne339442 0.0 1011248
21:00+2nne33916 0.0 101131
24 may, tue
tue2400:000n3389100 0.0 101221
03:000nne2287100 0.0 101216
06:00+3ene239197 0.2 1011115
09:00+5ese4994100 0.4 1008637
12:00+6ese5998100 11.8 1004386
15:00+3n4597100 18.6 1004126
18:00+6n128690 0.1 1004246
21:00+3n229783 0.1 100557
25 may, wed
wed2500:00+1n229699 0.0 100533
03:00+1ne229598 0.0 100429
06:00+1se1298100 0.1 1003213
09:00+2ene2297100 0.8 1003239
12:00+2wsw1199100 1.9 1003224
15:00+2sw1299100 2.6 1003260
18:00+3ene1291100 0.0 1002197
21:00+2nne2398100 0.1 100298
26 may, thu
thu2600:00+2nw2298100 0.1 100265
03:00+2nnw2288100 0.1 100232
06:00+3nnw1277100 0.1 1003191
09:00+3nnw1286100 0.3 1004443
12:00+5ne2267100 0.1 1005979
15:00+4se228169 0.3 1006575
18:00+6se126564 0.1 1006716
21:00+2ne128721 0.1 100720